Flag for Canada Weather past 2 weeks in Clarington, Ontario, Canada

Now
21 °F

Clear.


Feels Like: 21 °F
Forecast: 28 / 43 °F
Wind: No wind

Location: Peterborough Airport

Current Time: Apr 1, 2015 at 7:25:02 AM

Latest Report: Apr 1, 2015 at 7:00 AM


Visibility: 9 mi

Pressure: 30.10 "Hg

Humidity: 86%

Dew point: 18 °F

Location of ClaringtonLocation

Historic Weather in Clarington — Graph

°F

Clarington temperature yesterday

Maximum temperature yesterday: 41 °F (at 4:00 PM)
Minimum temperature yesterday: 25 °F (at 4:00 AM)
Average temperature yesterday: 32 °F

Past Weeks' High & Low Weather Summary

 TemperatureHumidityPressure
High43 °F (Mar 20, 3:00 PM)100% (Mar 20, 11:00 PM)30.43 "Hg (Mar 20, 11:00 PM)
Low3 °F (Mar 23, 7:00 AM)21% (Mar 19, 4:00 PM)29.53 "Hg (Mar 30, 6:00 AM)
Average27 °F70%30.06 "Hg
* Reported Mar 17 6:00 AM — Apr 1 6:00 AM, Clarington, Weather by CustomWeather, © 2015

Note: Actual official high and low records may vary slightly from our data, if they occured in-between our weather recording intervals... More about our weather records

Advertising

Clarington weather history for previous 24 hours

 ConditionsComfort  
Time TempWeatherWind HumidityBarometerVisibility
6:00 AM
Wed, Apr 1
21 °FPassing clouds.2 mph86%30.08 "Hg9 mi
5:00 AM21 °FPassing clouds.3 mph80%30.03 "Hg9 mi
4:00 AM23 °FPartly cloudy.No wind86%30.01 "Hg9 mi
3:00 AM25 °FPartly cloudy.2 mph69%30.00 "Hg9 mi
2:00 AM27 °FClear.5 mph64%29.99 "Hg9 mi
1:00 AM27 °FPassing clouds.8 mph64%29.98 "Hg9 mi
12:00 AM28 °FPassing clouds.3 mph59%29.97 "Hg9 mi
11:00 PM
Tue, Mar 31
28 °FClear.6 mph64%29.95 "Hg9 mi
10:00 PM30 °FPassing clouds.9 mph69%29.93 "Hg9 mi
9:00 PM32 °FClear.10 mph69%29.91 "Hg9 mi
8:00 PM34 °FSunny.12 mph60%29.88 "Hg9 mi
7:00 PM39 °FSunny.8 mph45%29.85 "Hg9 mi
6:00 PM41 °FSunny.7 mph42%29.83 "Hg9 mi
5:00 PM41 °FSunny.9 mph42%29.82 "Hg9 mi
4:00 PM41 °FScattered clouds.9 mph45%29.81 "Hg9 mi
3:00 PM39 °FPassing clouds.7 mph48%29.81 "Hg9 mi
2:00 PM39 °FPassing clouds.8 mph48%29.81 "Hg9 mi
1:00 PM37 °FPartly sunny.8 mph56%29.81 "Hg9 mi
12:00 PM36 °FScattered clouds.5 mph60%29.83 "Hg9 mi
11:00 AM34 °FPartly sunny.5 mph65%29.84 "Hg9 mi
10:00 AM30 °FPartly sunny.2 mph69%29.86 "Hg9 mi
9:00 AM30 °FPartly sunny.6 mph75%29.87 "Hg9 mi
8:00 AM27 °FSunny.5 mph100%29.87 "Hg9 mi
7:00 AM25 °FOvercast.No wind100%29.87 "Hg9 mi
Weather by CustomWeather, © 2015

See weather overviewHow to use our weather pages